Tracking 19242 objects as of 16-Aug-2018
HD Live streaming from Space Station
objects crossing your sky now

IRIDIUM 70

Track IRIDIUM 70 now!
10-day predictions
IRIDIUM 70 is classified as:


NORAD ID: 25342
Int'l Code: 1998-032A
Perigee: 768.8 km
Apogee: 771.7 km
Inclination: 86.4 °
Period: 100.1 minutes
Semi major axis: 7141 km
RCS: 4.084 m2 (large)
Launch date: May 17, 1998
Source: United States (US)
Launch site: AIR FORCE WESTERN TEST RANGE (AFWTR)
aabbcc
Your satellite tracking list
Your tracking list is empty




NASA's NSSDC Master Catalog

Two Line Element Set (TLE):
1 25342U 98032A   18226.57653098 -.00000070 +00000-0 -29298-4 0  9993
2 25342 086.4184 047.3097 0002003 078.3777 281.7646 14.38605070059511
Source of the keplerian elements: AFSPC